FW3958 Weather Reports


Display with metric or nautical units.
time (UTC)temp
F
wind
direction
speed
MPH
gust
MPH
rain 1hr
in
rain 24hr
in
rain mn
in
humidity
%
barometer
mb
20260508093056 43 268 0.0 0.0 0.00 0.00 0.00 100 1020.7
20260508091559 43 268 0.0 0.0 0.00 0.00 0.00 100 1020.6
20260508090055 43 268 0.0 0.0 0.00 0.00 0.00 100 1020.5
20260508084552 43 268 0.0 0.0 0.00 0.00 0.00 100 1020.5
20260508083053 42 268 0.0 0.0 0.00 0.00 0.00 100 1020.4
20260508081604 42 268 0.0 0.0 0.00 0.00 0.00 100 1020.3
20260508080049 42 268 0.0 0.0 0.00 0.00 0.00 100 1020.3
20260508074547 42 268 0.0 0.0 0.00 0.00 0.00 100 1020.4
20260508073046 42 268 0.0 0.0 0.00 0.00 0.00 100 1020.4
20260508071545 43 268 0.0 1.0 0.00 0.00 0.00 100 1020.4
20260508070046 43 268 0.0 0.0 0.00 0.00 0.00 99 1020.4
20260508064540 43 268 0.0 0.0 0.00 0.00 0.00 99 1020.3
20260508063039 44 268 0.0 0.0 0.00 0.00 0.00 99 1020.2
20260508061539 44 268 0.0 0.0 0.00 0.00 0.00 99 1020.3
20260508060037 44 268 0.0 1.0 0.00 0.00 0.00 99 1020.5
20260508054542 44 268 0.0 0.0 0.00 0.00 0.00 98 1020.2
20260508053035 45 268 0.0 2.0 0.00 0.00 0.00 98 1020.4
20260508051533 45 301 0.0 0.0 0.00 0.00 0.00 97 1020.3
20260508050032 45 301 0.0 0.0 0.00 0.00 0.00 97 1020.4
20260508044530 46 301 0.0 1.0 0.00 0.00 0.00 96 1020.5
20260508043027 46 301 0.0 0.0 0.00 0.00 0.00 95 1020.7
20260508041525 47 301 0.0 0.0 0.00 0.00 0.00 93 1020.6
20260508040023 48 301 0.0 0.0 0.00 0.00 0.00 93 1020.5
20260508034524 49 301 0.0 1.0 0.00 0.00 0.00 92 1020.5
20260508033025 49 301 0.0 1.0 0.00 0.00 0.00 89 1020.5
20260508031620 50 301 0.0 0.0 0.00 0.00 0.00 88 1020.5
20260508030020 51 301 0.0 2.0 0.00 0.00 0.00 87 1020.4
20260508024519 52 303 0.0 3.0 0.00 0.00 0.00 85 1020.3
20260508023021 53 294 1.0 5.0 0.00 0.00 0.00 82 1020.2
20260508021517 55 285 3.0 7.0 0.00 0.00 0.00 78 1020.3
20260508020016 56 297 3.0 6.0 0.00 0.00 0.00 79 1020.4
20260508014515 56 276 2.0 6.0 0.00 0.00 0.00 78 1020.4
20260508013013 56 297 3.0 7.0 0.00 0.00 0.00 78 1020.6
20260508011513 56 298 2.0 6.0 0.00 0.00 0.00 79 1020.8
20260508010012 57 295 3.0 8.0 0.00 0.00 0.00 76 1020.8
20260508004511 57 300 3.0 9.0 0.00 0.00 0.00 77 1020.9
20260508003110 57 296 3.0 7.0 0.00 0.00 0.00 76 1021.0
20260508001509 56 294 4.0 8.0 0.00 0.00 0.00 79 1021.0
20260508000008 57 302 5.0 8.0 0.00 0.00 0.00 77 1020.9
20260507234508 58 341 3.0 8.0 0.00 0.00 0.00 77 1020.9
20260507233001 57 325 5.0 8.0 0.00 0.00 0.00 76 1021.2
20260507231606 57 299 4.0 12.0 0.00 0.00 0.00 76 1021.4
20260507230101 58 297 3.0 10.0 0.00 0.00 0.00 76 1021.4
20260507224601 57 304 4.0 12.0 0.00 0.00 0.00 74 1021.6
20260507223100 58 319 5.0 11.0 0.00 0.00 0.00 75 1021.7
20260507221554 58 292 5.0 10.0 0.00 0.00 0.00 74 1021.8
20260507220053 58 275 5.0 10.0 0.00 0.00 0.00 76 1022.0
20260507214558 58 303 7.0 11.0 0.00 0.00 0.00 75 1022.1
20260507213051 59 305 8.0 10.0 0.00 0.00 0.00 75 1022.1
20260507211551 59 300 4.0 9.0 0.00 0.00 0.00 74 1021.9
20260507210050 59 14 5.0 9.0 0.00 0.00 0.00 76 1021.9
20260507204545 58 336 4.0 8.0 0.00 0.00 0.00 73 1022.1
20260507203049 58 312 3.0 10.0 0.00 0.00 0.00 74 1022.2
20260507201542 58 9 5.0 11.0 0.00 0.00 0.00 74 1022.3
20260507200048 58 277 3.0 10.0 0.00 0.00 0.00 73 1022.2
20260507194541 58 1 4.0 10.0 0.00 0.00 0.00 73 1022.3
20260507193036 58 336 3.0 9.0 0.00 0.00 0.00 73 1022.3
20260507191535 58 280 2.0 7.0 0.00 0.00 0.00 71 1022.4
20260507190033 58 248 1.0 4.0 0.00 0.00 0.00 72 1022.6
20260507184529 57 292 1.0 3.0 0.00 0.00 0.00 71 1022.8
20260507183036 57 355 3.0 7.0 0.00 0.00 0.00 73 1022.8
20260507181524 56 321 1.0 5.0 0.00 0.00 0.00 76 1023.1
20260507180036 55 311 0.0 7.0 0.00 0.00 0.00 76 1023.1
20260507174528 55 329 2.0 6.0 0.00 0.00 0.00 75 1023.3
20260507173019 55 288 0.0 1.0 0.00 0.00 0.00 78 1023.4
20260507171517 53 274 1.0 5.0 0.00 0.00 0.00 78 1023.5
20260507170021 53 308 3.0 6.0 0.00 0.00 0.00 78 1023.6
20260507164515 53 7 2.0 4.0 0.00 0.00 0.00 78 1023.6
20260507163014 52 307 1.0 8.0 0.00 0.00 0.00 80 1023.7
20260507161520 52 22 0.0 4.0 0.00 0.00 0.00 78 1023.7
20260507160013 52 7 1.0 4.0 0.00 0.00 0.00 80 1023.7
20260507154510 52 1 2.0 8.0 0.00 0.00 0.00 81 1023.9
20260507153012 52 14 2.0 6.0 0.00 0.00 0.00 82 1023.7
20260507151510 51 24 0.0 4.0 0.00 0.00 0.00 84 1023.7
20260507150007 51 355 0.0 3.0 0.00 0.00 0.00 84 1023.5
20260507144505 50 311 0.0 3.0 0.00 0.00 0.00 87 1023.6
20260507143006 50 310 0.0 1.0 0.00 0.00 0.00 91 1023.6
20260507141504 49 310 0.0 1.0 0.00 0.00 0.00 92 1023.5
20260507140004 49 310 0.0 1.0 0.00 0.00 0.00 95 1023.5
20260507134507 49 310 0.0 1.0 0.00 0.00 0.00 95 1023.3
20260507133002 49 310 0.0 0.0 0.00 0.00 0.00 95 1023.3
20260507131504 49 310 0.0 0.0 0.00 0.00 0.00 94 1023.3
20260507130104 49 310 0.0 0.0 0.00 0.00 0.00 95 1023.3
20260507124559 49 310 0.0 0.0 0.00 0.00 0.00 95 1023.3
20260507123107 49 310 0.0 0.0 0.00 0.00 0.00 94 1023.4
20260507121601 49 310 0.0 0.0 0.00 0.00 0.00 93 1023.5
20260507120056 49 310 0.0 0.0 0.00 0.00 0.00 92 1023.7
20260507114553 50 310 0.0 0.0 0.00 0.00 0.00 91 1023.7
20260507113051 50 310 0.0 2.0 0.00 0.00 0.00 90 1023.8
20260507111549 50 310 0.0 2.0 0.00 0.00 0.00 88 1023.8
20260507104547 50 305 0.0 4.0 0.00 0.00 0.00 88 1024.0
20260507103052 50 306 0.0 1.0 0.00 0.00 0.00 88 1024.2
20260507101548 50 306 0.0 3.0 0.00 0.00 0.00 88 1024.2
20260507100044 50 306 0.0 2.0 0.00 0.00 0.00 88 1024.3
20260507094542 50 306 0.0 3.0 0.00 0.00 0.00 89 1024.4